owner,sensor,date,latitude,longitude,vertical_datum,mass_concentration_of_oxygen_in_sea_water,qcFlag 
DISL,ioos:station:DISL:DISL:1,2016-07-01T00:00:00Z,30.2513,-88.0778,1.863,6.49,1111122 
DISL,ioos:station:DISL:DISL:1,2016-07-01T00:30:00Z,30.2513,-88.0778,1.888,6.12,1111122 
DISL,ioos:station:DISL:DISL:1,2016-07-01T01:00:00Z,30.2513,-88.0778,1.91,6.09,1111122 
DISL,ioos:station:DISL:DISL:1,2016-07-01T01:30:00Z,30.2513,-88.0778,1.903,6.05,1111122 
DISL,ioos:station:DISL:DISL:1,2016-07-01T02:00:00Z,30.2513,-88.0778,1.921,5.72,1111122 
DISL,ioos:station:DISL:DISL:1,2016-07-01T02:30:00Z,30.2513,-88.0778,1.928,6.08,1111122 
DISL,ioos:station:DISL:DISL:1,2016-07-01T03:00:00Z,30.2513,-88.0778,1.954,6.99,1111122 
DISL,ioos:station:DISL:DISL:1,2016-07-01T03:30:00Z,30.2513,-88.0778,1.963,6.91,1111122 
DISL,ioos:station:DISL:DISL:1,2016-07-01T04:00:00Z,30.2513,-88.0778,1.987,6.73,1111122 
DISL,ioos:station:DISL:DISL:1,2016-07-01T04:30:00Z,30.2513,-88.0778,1.989,5.88,1111122 
DISL,ioos:station:DISL:DISL:1,2016-07-01T05:00:00Z,30.2513,-88.0778,2.021,5.39,1111122 
DISL,ioos:station:DISL:DISL:1,2016-07-01T05:30:00Z,30.2513,-88.0778,2.025,5.19,1111122 
DISL,ioos:station:DISL:DISL:1,2016-07-01T06:00:00Z,30.2513,-88.0778,2.057,5.42,1111122 
DISL,ioos:station:DISL:DISL:1,2016-07-01T06:30:00Z,30.2513,-88.0778,2.071,4.63,1111122 
DISL,ioos:station:DISL:DISL:1,2016-07-01T07:00:00Z,30.2513,-88.0778,2.096,4.64,1111122 
DISL,ioos:station:DISL:DISL:1,2016-07-01T07:30:00Z,30.2513,-88.0778,2.094,4.92,1111122 
DISL,ioos:station:DISL:DISL:1,2016-07-01T08:00:00Z,30.2513,-88.0778,2.152,4.68,1111122 
DISL,ioos:station:DISL:DISL:1,2016-07-01T08:30:00Z,30.2513,-88.0778,2.165,4.47,1111122 
DISL,ioos:station:DISL:DISL:1,2016-07-01T09:00:00Z,30.2513,-88.0778,2.2,4.53,1111122 
DISL,ioos:station:DISL:DISL:1,2016-07-01T09:30:00Z,30.2513,-88.0778,2.23,4.58,1111122 
DISL,ioos:station:DISL:DISL:1,2016-07-01T10:00:00Z,30.2513,-88.0778,2.236,5.01,1111122 
DISL,ioos:station:DISL:DISL:1,2016-07-01T10:30:00Z,30.2513,-88.0778,2.252,5.32,1111122 
DISL,ioos:station:DISL:DISL:1,2016-07-01T11:00:00Z,30.2513,-88.0778,2.411,5.13,1111122 
DISL,ioos:station:DISL:DISL:1,2016-07-01T11:30:00Z,30.2513,-88.0778,2.269,5.0,1111122 
DISL,ioos:station:DISL:DISL:1,2016-07-01T12:00:00Z,30.2513,-88.0778,2.284,5.96,1111122 
DISL,ioos:station:DISL:DISL:1,2016-07-01T12:30:00Z,30.2513,-88.0778,2.311,6.23,1111122 
DISL,ioos:station:DISL:DISL:1,2016-07-01T13:00:00Z,30.2513,-88.0778,2.312,6.05,1111122 
DISL,ioos:station:DISL:DISL:1,2016-07-01T13:30:00Z,30.2513,-88.0778,2.31,6.0,1111122 
DISL,ioos:station:DISL:DISL:1,2016-07-01T14:00:00Z,30.2513,-88.0778,2.303,5.63,1111122 
DISL,ioos:station:DISL:DISL:1,2016-07-01T14:30:00Z,30.2513,-88.0778,2.282,5.97,1111122 
DISL,ioos:station:DISL:DISL:1,2016-07-01T15:00:00Z,30.2513,-88.0778,2.259,6.02,1111122 
DISL,ioos:station:DISL:DISL:1,2016-07-01T15:30:00Z,30.2513,-88.0778,2.237,6.33,1111122 
DISL,ioos:station:DISL:DISL:1,2016-07-01T16:00:00Z,30.2513,-88.0778,2.214,6.43,1111122 
DISL,ioos:station:DISL:DISL:1,2016-07-01T16:30:00Z,30.2513,-88.0778,2.169,6.46,1111122 
DISL,ioos:station:DISL:DISL:1,2016-07-01T17:00:00Z,30.2513,-88.0778,2.137,6.73,1111122 
DISL,ioos:station:DISL:DISL:1,2016-07-01T17:30:00Z,30.2513,-88.0778,2.105,6.71,1111122 
DISL,ioos:station:DISL:DISL:1,2016-07-01T18:00:00Z,30.2513,-88.0778,2.057,6.55,1111122 
DISL,ioos:station:DISL:DISL:1,2016-07-01T18:30:00Z,30.2513,-88.0778,2.013,7.23,1111122 
DISL,ioos:station:DISL:DISL:1,2016-07-01T19:00:00Z,30.2513,-88.0778,2.012,8.13,1111122 
DISL,ioos:station:DISL:DISL:1,2016-07-01T19:30:00Z,30.2513,-88.0778,1.992,8.03,1111122 
DISL,ioos:station:DISL:DISL:1,2016-07-01T20:00:00Z,30.2513,-88.0778,1.969,8.06,1111122 
DISL,ioos:station:DISL:DISL:1,2016-07-01T20:30:00Z,30.2513,-88.0778,1.922,8.19,1111122 
DISL,ioos:station:DISL:DISL:1,2016-07-01T21:00:00Z,30.2513,-88.0778,1.893,8.27,1111122 
DISL,ioos:station:DISL:DISL:1,2016-07-01T21:30:00Z,30.2513,-88.0778,1.866,8.22,1111122 
DISL,ioos:station:DISL:DISL:1,2016-07-01T22:00:00Z,30.2513,-88.0778,1.823,7.97,1111122 
DISL,ioos:station:DISL:DISL:1,2016-07-01T22:30:00Z,30.2513,-88.0778,1.833,8.24,1111122 
DISL,ioos:station:DISL:DISL:1,2016-07-01T23:00:00Z,30.2513,-88.0778,1.788,8.05,1111122 
DISL,ioos:station:DISL:DISL:1,2016-07-01T23:30:00Z,30.2513,-88.0778,1.774,8.02,1111122 
DISL,ioos:station:DISL:DISL:1,2016-07-02T00:00:00Z,30.2513,-88.0778,1.763,8.0,1111122 
DISL,ioos:station:DISL:DISL:1,2016-07-02T00:30:00Z,30.2513,-88.0778,1.759,7.64,1111122 
DISL,ioos:station:DISL:DISL:1,2016-07-02T01:00:00Z,30.2513,-88.0778,1.763,7.73,1111122 
DISL,ioos:station:DISL:DISL:1,2016-07-02T01:30:00Z,30.2513,-88.0778,1.778,9.59,1111122 
DISL,ioos:station:DISL:DISL:1,2016-07-02T02:00:00Z,30.2513,-88.0778,1.782,8.99,1111122 
DISL,ioos:station:DISL:DISL:1,2016-07-02T02:30:00Z,30.2513,-88.0778,1.797,8.71,1111122 
DISL,ioos:station:DISL:DISL:1,2016-07-02T03:00:00Z,30.2513,-88.0778,1.819,7.77,1111122 
DISL,ioos:station:DISL:DISL:1,2016-07-02T03:30:00Z,30.2513,-88.0778,1.84,8.65,1111122 
DISL,ioos:station:DISL:DISL:1,2016-07-02T04:00:00Z,30.2513,-88.0778,1.85,8.23,1111122 
DISL,ioos:station:DISL:DISL:1,2016-07-02T04:30:00Z,30.2513,-88.0778,1.866,7.36,1111122 
DISL,ioos:station:DISL:DISL:1,2016-07-02T05:00:00Z,30.2513,-88.0778,1.884,7.08,1111122 
DISL,ioos:station:DISL:DISL:1,2016-07-02T05:30:00Z,30.2513,-88.0778,1.912,6.51,1111122 
DISL,ioos:station:DISL:DISL:1,2016-07-02T06:00:00Z,30.2513,-88.0778,1.93,6.04,1111122 
DISL,ioos:station:DISL:DISL:1,2016-07-02T06:30:00Z,30.2513,-88.0778,1.962,6.72,1111122 
DISL,ioos:station:DISL:DISL:1,2016-07-02T07:00:00Z,30.2513,-88.0778,1.993,6.37,1111122 
DISL,ioos:station:DISL:DISL:1,2016-07-02T07:30:00Z,30.2513,-88.0778,2.022,6.07,1111122 
DISL,ioos:station:DISL:DISL:1,2016-07-02T08:00:00Z,30.2513,-88.0778,2.036,5.86,1111122 
DISL,ioos:station:DISL:DISL:1,2016-07-02T08:30:00Z,30.2513,-88.0778,2.073,5.78,1111122 
DISL,ioos:station:DISL:DISL:1,2016-07-02T09:00:00Z,30.2513,-88.0778,2.104,5.13,1111122 
DISL,ioos:station:DISL:DISL:1,2016-07-02T09:30:00Z,30.2513,-88.0778,2.141,5.74,1111122 
DISL,ioos:station:DISL:DISL:1,2016-07-02T10:00:00Z,30.2513,-88.0778,2.175,5.86,1111122 
DISL,ioos:station:DISL:DISL:1,2016-07-02T10:30:00Z,30.2513,-88.0778,2.2,5.89,1111122 
DISL,ioos:station:DISL:DISL:1,2016-07-02T11:00:00Z,30.2513,-88.0778,2.23,5.88,1111122 
DISL,ioos:station:DISL:DISL:1,2016-07-02T11:30:00Z,30.2513,-88.0778,2.242,5.99,1111122 
DISL,ioos:station:DISL:DISL:1,2016-07-02T12:00:00Z,30.2513,-88.0778,2.28,6.05,1111122 
DISL,ioos:station:DISL:DISL:1,2016-07-02T12:30:00Z,30.2513,-88.0778,2.282,5.99,1111122 
DISL,ioos:station:DISL:DISL:1,2016-07-02T13:00:00Z,30.2513,-88.0778,2.298,5.86,1111122 
DISL,ioos:station:DISL:DISL:1,2016-07-02T13:30:00Z,30.2513,-88.0778,2.296,6.03,1111122 
DISL,ioos:station:DISL:DISL:1,2016-07-02T14:00:00Z,30.2513,-88.0778,2.309,6.08,1111122 
DISL,ioos:station:DISL:DISL:1,2016-07-02T14:30:00Z,30.2513,-88.0778,2.307,5.94,1111122 
DISL,ioos:station:DISL:DISL:1,2016-07-02T15:00:00Z,30.2513,-88.0778,2.289,5.88,1111122 
DISL,ioos:station:DISL:DISL:1,2016-07-02T15:30:00Z,30.2513,-88.0778,2.276,5.89,1111122 
DISL,ioos:station:DISL:DISL:1,2016-07-02T16:00:00Z,30.2513,-88.0778,2.247,5.9,1111122 
DISL,ioos:station:DISL:DISL:1,2016-07-02T16:30:00Z,30.2513,-88.0778,2.225,5.88,1111122 
DISL,ioos:station:DISL:DISL:1,2016-07-02T17:00:00Z,30.2513,-88.0778,2.19,6.0,1111122 
DISL,ioos:station:DISL:DISL:1,2016-07-02T17:30:00Z,30.2513,-88.0778,2.159,6.01,1111122 
DISL,ioos:station:DISL:DISL:1,2016-07-02T18:00:00Z,30.2513,-88.0778,2.114,6.11,1111122 
DISL,ioos:station:DISL:DISL:1,2016-07-02T18:30:00Z,30.2513,-88.0778,2.069,6.19,1111122 
DISL,ioos:station:DISL:DISL:1,2016-07-02T19:00:00Z,30.2513,-88.0778,2.036,6.11,1111122 
DISL,ioos:station:DISL:DISL:1,2016-07-02T19:30:00Z,30.2513,-88.0778,1.995,7.13,1111122 
DISL,ioos:station:DISL:DISL:1,2016-07-02T20:00:00Z,30.2513,-88.0778,1.96,7.29,1111122 
DISL,ioos:station:DISL:DISL:1,2016-07-02T20:30:00Z,30.2513,-88.0778,1.921,7.59,1111122 
DISL,ioos:station:DISL:DISL:1,2016-07-02T21:00:00Z,30.2513,-88.0778,1.875,7.97,1111122 
DISL,ioos:station:DISL:DISL:1,2016-07-02T21:30:00Z,30.2513,-88.0778,1.864,8.47,1111122 
DISL,ioos:station:DISL:DISL:1,2016-07-02T22:00:00Z,30.2513,-88.0778,1.841,8.28,1111122 
DISL,ioos:station:DISL:DISL:1,2016-07-02T22:30:00Z,30.2513,-88.0778,1.816,8.33,1111122 
DISL,ioos:station:DISL:DISL:1,2016-07-02T23:00:00Z,30.2513,-88.0778,1.814,8.35,1111122 
DISL,ioos:station:DISL:DISL:1,2016-07-02T23:30:00Z,30.2513,-88.0778,1.776,7.97,1111122 
DISL,ioos:station:DISL:DISL:1,2016-07-03T00:00:00Z,30.2513,-88.0778,1.766,7.74,1111122 
DISL,ioos:station:DISL:DISL:1,2016-07-03T00:30:00Z,30.2513,-88.0778,1.76,7.65,1111122 
DISL,ioos:station:DISL:DISL:1,2016-07-03T01:00:00Z,30.2513,-88.0778,1.739,7.69,1111122 
DISL,ioos:station:DISL:DISL:1,2016-07-03T01:30:00Z,30.2513,-88.0778,1.75,7.48,1111122 
DISL,ioos:station:DISL:DISL:1,2016-07-03T02:00:00Z,30.2513,-88.0778,1.745,7.1,1111122 
DISL,ioos:station:DISL:DISL:1,2016-07-03T02:30:00Z,30.2513,-88.0778,1.753,7.08,1111122 
DISL,ioos:station:DISL:DISL:1,2016-07-03T03:00:00Z,30.2513,-88.0778,1.773,5.53,1111122 
DISL,ioos:station:DISL:DISL:1,2016-07-03T03:30:00Z,30.2513,-88.0778,1.773,4.51,1111122 
DISL,ioos:station:DISL:DISL:1,2016-07-03T04:00:00Z,30.2513,-88.0778,1.79,5.28,1111122 
DISL,ioos:station:DISL:DISL:1,2016-07-03T04:30:00Z,30.2513,-88.0778,1.803,5.29,1111122 
DISL,ioos:station:DISL:DISL:1,2016-07-03T05:00:00Z,30.2513,-88.0778,1.827,4.53,1111122 
DISL,ioos:station:DISL:DISL:1,2016-07-03T05:30:00Z,30.2513,-88.0778,1.856,5.96,1111122 
DISL,ioos:station:DISL:DISL:1,2016-07-03T06:00:00Z,30.2513,-88.0778,1.871,6.37,1111122 
DISL,ioos:station:DISL:DISL:1,2016-07-03T06:30:00Z,30.2513,-88.0778,1.895,5.62,1111122 
DISL,ioos:station:DISL:DISL:1,2016-07-03T07:00:00Z,30.2513,-88.0778,1.922,5.88,1111122 
DISL,ioos:station:DISL:DISL:1,2016-07-03T07:30:00Z,30.2513,-88.0778,1.951,5.7,1111122 
DISL,ioos:station:DISL:DISL:1,2016-07-03T08:00:00Z,30.2513,-88.0778,1.995,5.79,1111122 
DISL,ioos:station:DISL:DISL:1,2016-07-03T08:30:00Z,30.2513,-88.0778,2.019,5.69,1111122 
DISL,ioos:station:DISL:DISL:1,2016-07-03T09:00:00Z,30.2513,-88.0778,2.026,5.57,1111122 
DISL,ioos:station:DISL:DISL:1,2016-07-03T09:30:00Z,30.2513,-88.0778,2.078,5.47,1111122 
DISL,ioos:station:DISL:DISL:1,2016-07-03T10:00:00Z,30.2513,-88.0778,2.097,5.73,1111122 
DISL,ioos:station:DISL:DISL:1,2016-07-03T10:30:00Z,30.2513,-88.0778,2.132,5.41,1111122 
DISL,ioos:station:DISL:DISL:1,2016-07-03T11:00:00Z,30.2513,-88.0778,2.165,5.08,1111122 
DISL,ioos:station:DISL:DISL:1,2016-07-03T11:30:00Z,30.2513,-88.0778,2.2,5.24,1111122 
DISL,ioos:station:DISL:DISL:1,2016-07-03T12:00:00Z,30.2513,-88.0778,2.222,4.8,1111122 
DISL,ioos:station:DISL:DISL:1,2016-07-03T12:30:00Z,30.2513,-88.0778,2.245,4.91,1111122 
DISL,ioos:station:DISL:DISL:1,2016-07-03T13:00:00Z,30.2513,-88.0778,2.262,5.03,1111122 
DISL,ioos:station:DISL:DISL:1,2016-07-03T13:30:00Z,30.2513,-88.0778,2.284,5.19,1111122 
DISL,ioos:station:DISL:DISL:1,2016-07-03T14:00:00Z,30.2513,-88.0778,2.287,5.24,1111122 
DISL,ioos:station:DISL:DISL:1,2016-07-03T14:30:00Z,30.2513,-88.0778,2.298,5.11,1111122 
DISL,ioos:station:DISL:DISL:1,2016-07-03T15:00:00Z,30.2513,-88.0778,2.292,4.91,1111122 
DISL,ioos:station:DISL:DISL:1,2016-07-03T15:30:00Z,30.2513,-88.0778,2.284,4.97,1111122 
DISL,ioos:station:DISL:DISL:1,2016-07-03T16:00:00Z,30.2513,-88.0778,2.264,4.94,1111122 
DISL,ioos:station:DISL:DISL:1,2016-07-03T16:30:00Z,30.2513,-88.0778,2.265,4.87,1111122 
DISL,ioos:station:DISL:DISL:1,2016-07-03T17:00:00Z,30.2513,-88.0778,2.223,5.57,1111122 
DISL,ioos:station:DISL:DISL:1,2016-07-03T17:30:00Z,30.2513,-88.0778,2.195,5.1,1111122 
DISL,ioos:station:DISL:DISL:1,2016-07-03T18:00:00Z,30.2513,-88.0778,2.174,5.14,1111122 
DISL,ioos:station:DISL:DISL:1,2016-07-03T18:30:00Z,30.2513,-88.0778,2.134,5.65,1111122 
DISL,ioos:station:DISL:DISL:1,2016-07-03T19:00:00Z,30.2513,-88.0778,2.083,5.63,1111122 
DISL,ioos:station:DISL:DISL:1,2016-07-03T19:30:00Z,30.2513,-88.0778,2.05,5.69,1111122 
DISL,ioos:station:DISL:DISL:1,2016-07-03T20:00:00Z,30.2513,-88.0778,2.0,6.19,1111122 
DISL,ioos:station:DISL:DISL:1,2016-07-03T20:30:00Z,30.2513,-88.0778,1.967,6.36,1111122 
DISL,ioos:station:DISL:DISL:1,2016-07-03T21:00:00Z,30.2513,-88.0778,1.908,6.98,1111122 
DISL,ioos:station:DISL:DISL:1,2016-07-03T21:30:00Z,30.2513,-88.0778,1.885,7.64,1111122 
DISL,ioos:station:DISL:DISL:1,2016-07-03T22:00:00Z,30.2513,-88.0778,1.838,7.89,1111122 
DISL,ioos:station:DISL:DISL:1,2016-07-03T22:30:00Z,30.2513,-88.0778,1.82,7.22,1111122 
DISL,ioos:station:DISL:DISL:1,2016-07-03T23:00:00Z,30.2513,-88.0778,1.815,6.49,1111122 
DISL,ioos:station:DISL:DISL:1,2016-07-03T23:30:00Z,30.2513,-88.0778,1.786,6.73,1111122 
DISL,ioos:station:DISL:DISL:1,2016-07-04T00:00:00Z,30.2513,-88.0778,1.754,6.43,1111122 
DISL,ioos:station:DISL:DISL:1,2016-07-04T00:30:00Z,30.2513,-88.0778,1.767,6.75,1111122 
DISL,ioos:station:DISL:DISL:1,2016-07-04T01:00:00Z,30.2513,-88.0778,1.738,6.25,1111122 
DISL,ioos:station:DISL:DISL:1,2016-07-04T01:30:00Z,30.2513,-88.0778,1.733,6.31,1111122 
DISL,ioos:station:DISL:DISL:1,2016-07-04T02:00:00Z,30.2513,-88.0778,1.716,6.13,1111122 
DISL,ioos:station:DISL:DISL:1,2016-07-04T02:30:00Z,30.2513,-88.0778,1.719,5.92,1111122 
DISL,ioos:station:DISL:DISL:1,2016-07-04T03:00:00Z,30.2513,-88.0778,1.712,5.82,1111122 
DISL,ioos:station:DISL:DISL:1,2016-07-04T03:30:00Z,30.2513,-88.0778,1.732,5.61,1111122 
DISL,ioos:station:DISL:DISL:1,2016-07-04T04:00:00Z,30.2513,-88.0778,1.73,4.93,1111122 
DISL,ioos:station:DISL:DISL:1,2016-07-04T04:30:00Z,30.2513,-88.0778,1.756,5.47,1111122 
DISL,ioos:station:DISL:DISL:1,2016-07-04T05:00:00Z,30.2513,-88.0778,1.762,5.14,1111122 
DISL,ioos:station:DISL:DISL:1,2016-07-04T05:30:00Z,30.2513,-88.0778,1.735,4.99,1111122 
DISL,ioos:station:DISL:DISL:1,2016-07-04T06:00:00Z,30.2513,-88.0778,1.796,5.58,1111122 
DISL,ioos:station:DISL:DISL:1,2016-07-04T06:30:00Z,30.2513,-88.0778,1.8,5.5,1111122 
DISL,ioos:station:DISL:DISL:1,2016-07-04T07:00:00Z,30.2513,-88.0778,1.831,5.41,1111122 
DISL,ioos:station:DISL:DISL:1,2016-07-04T07:30:00Z,30.2513,-88.0778,1.862,5.46,1111122 
DISL,ioos:station:DISL:DISL:1,2016-07-04T08:00:00Z,30.2513,-88.0778,1.891,5.27,1111122 
DISL,ioos:station:DISL:DISL:1,2016-07-04T08:30:00Z,30.2513,-88.0778,1.927,5.26,1111122 
DISL,ioos:station:DISL:DISL:1,2016-07-04T09:00:00Z,30.2513,-88.0778,1.951,5.33,1111122 
DISL,ioos:station:DISL:DISL:1,2016-07-04T09:30:00Z,30.2513,-88.0778,1.987,4.89,1111122 
DISL,ioos:station:DISL:DISL:1,2016-07-04T10:00:00Z,30.2513,-88.0778,2.019,5.25,1111122 
DISL,ioos:station:DISL:DISL:1,2016-07-04T10:30:00Z,30.2513,-88.0778,2.044,5.4,1111122 
DISL,ioos:station:DISL:DISL:1,2016-07-04T11:00:00Z,30.2513,-88.0778,2.086,5.44,1111122 
DISL,ioos:station:DISL:DISL:1,2016-07-04T11:30:00Z,30.2513,-88.0778,2.099,5.48,1111122 
DISL,ioos:station:DISL:DISL:1,2016-07-04T12:00:00Z,30.2513,-88.0778,2.138,5.46,1111122 
DISL,ioos:station:DISL:DISL:1,2016-07-04T12:30:00Z,30.2513,-88.0778,2.17,5.4,1111122 
DISL,ioos:station:DISL:DISL:1,2016-07-04T13:00:00Z,30.2513,-88.0778,2.194,5.37,1111122 
DISL,ioos:station:DISL:DISL:1,2016-07-04T13:30:00Z,30.2513,-88.0778,2.215,5.36,1111122 
DISL,ioos:station:DISL:DISL:1,2016-07-04T14:00:00Z,30.2513,-88.0778,2.238,5.41,1111122 
DISL,ioos:station:DISL:DISL:1,2016-07-04T14:30:00Z,30.2513,-88.0778,2.23,5.07,1111122 
DISL,ioos:station:DISL:DISL:1,2016-07-04T15:00:00Z,30.2513,-88.0778,2.254,5.28,1111122 
DISL,ioos:station:DISL:DISL:1,2016-07-04T15:30:00Z,30.2513,-88.0778,2.247,5.46,1111122 
DISL,ioos:station:DISL:DISL:1,2016-07-04T16:00:00Z,30.2513,-88.0778,2.263,5.22,1111122 
DISL,ioos:station:DISL:DISL:1,2016-07-04T16:30:00Z,30.2513,-88.0778,2.237,5.86,1111122 
DISL,ioos:station:DISL:DISL:1,2016-07-04T17:00:00Z,30.2513,-88.0778,2.221,5.88,1111122 
DISL,ioos:station:DISL:DISL:1,2016-07-04T17:30:00Z,30.2513,-88.0778,2.226,6.0,1111122 
DISL,ioos:station:DISL:DISL:1,2016-07-04T18:00:00Z,30.2513,-88.0778,2.187,6.41,1111122 
DISL,ioos:station:DISL:DISL:1,2016-07-04T18:30:00Z,30.2513,-88.0778,2.166,6.61,1111122 
DISL,ioos:station:DISL:DISL:1,2016-07-04T19:00:00Z,30.2513,-88.0778,2.125,6.73,1111122 
DISL,ioos:station:DISL:DISL:1,2016-07-04T19:30:00Z,30.2513,-88.0778,2.092,6.85,1111122 
DISL,ioos:station:DISL:DISL:1,2016-07-04T20:00:00Z,30.2513,-88.0778,2.047,6.83,1111122 
DISL,ioos:station:DISL:DISL:1,2016-07-04T20:30:00Z,30.2513,-88.0778,2.014,7.06,1111122 
DISL,ioos:station:DISL:DISL:1,2016-07-04T21:00:00Z,30.2513,-88.0778,1.972,7.07,1111122 
DISL,ioos:station:DISL:DISL:1,2016-07-04T21:30:00Z,30.2513,-88.0778,1.954,7.17,1111122 
DISL,ioos:station:DISL:DISL:1,2016-07-04T22:00:00Z,30.2513,-88.0778,1.941,7.54,1111122 
DISL,ioos:station:DISL:DISL:1,2016-07-04T22:30:00Z,30.2513,-88.0778,1.9,7.88,1111122 
DISL,ioos:station:DISL:DISL:1,2016-07-04T23:00:00Z,30.2513,-88.0778,1.851,8.07,1111122 
DISL,ioos:station:DISL:DISL:1,2016-07-04T23:30:00Z,30.2513,-88.0778,1.827,7.76,1111122 
DISL,ioos:station:DISL:DISL:1,2016-07-05T00:00:00Z,30.2513,-88.0778,1.805,7.32,1111122 
DISL,ioos:station:DISL:DISL:1,2016-07-05T00:30:00Z,30.2513,-88.0778,1.776,7.02,1111122 
DISL,ioos:station:DISL:DISL:1,2016-07-05T01:00:00Z,30.2513,-88.0778,1.76,6.68,1111122 
DISL,ioos:station:DISL:DISL:1,2016-07-05T01:30:00Z,30.2513,-88.0778,1.746,6.57,1111122 
DISL,ioos:station:DISL:DISL:1,2016-07-05T02:00:00Z,30.2513,-88.0778,1.72,6.52,1111122 
DISL,ioos:station:DISL:DISL:1,2016-07-05T02:30:00Z,30.2513,-88.0778,1.711,6.43,1111122 
DISL,ioos:station:DISL:DISL:1,2016-07-05T03:00:00Z,30.2513,-88.0778,1.708,6.36,1111122 
DISL,ioos:station:DISL:DISL:1,2016-07-05T03:30:00Z,30.2513,-88.0778,1.728,5.79,1111122 
DISL,ioos:station:DISL:DISL:1,2016-07-05T04:00:00Z,30.2513,-88.0778,1.733,5.52,1111122 
DISL,ioos:station:DISL:DISL:1,2016-07-05T04:30:00Z,30.2513,-88.0778,1.75,5.83,1111122 
DISL,ioos:station:DISL:DISL:1,2016-07-05T05:00:00Z,30.2513,-88.0778,1.736,5.2,1111122 
DISL,ioos:station:DISL:DISL:1,2016-07-05T05:30:00Z,30.2513,-88.0778,1.767,5.03,1111122 
DISL,ioos:station:DISL:DISL:1,2016-07-05T06:00:00Z,30.2513,-88.0778,1.778,5.41,1111122 
DISL,ioos:station:DISL:DISL:1,2016-07-05T06:30:00Z,30.2513,-88.0778,1.787,5.2,1111122 
DISL,ioos:station:DISL:DISL:1,2016-07-05T07:00:00Z,30.2513,-88.0778,1.797,5.28,1111122 
DISL,ioos:station:DISL:DISL:1,2016-07-05T07:30:00Z,30.2513,-88.0778,1.811,5.71,1111122 
DISL,ioos:station:DISL:DISL:1,2016-07-05T08:00:00Z,30.2513,-88.0778,1.851,5.87,1111122 
DISL,ioos:station:DISL:DISL:1,2016-07-05T08:30:00Z,30.2513,-88.0778,1.854,5.87,1111122 
DISL,ioos:station:DISL:DISL:1,2016-07-05T09:00:00Z,30.2513,-88.0778,1.874,5.54,1111122 
DISL,ioos:station:DISL:DISL:1,2016-07-05T09:30:00Z,30.2513,-88.0778,1.914,5.47,1111122 
DISL,ioos:station:DISL:DISL:1,2016-07-05T10:00:00Z,30.2513,-88.0778,1.947,5.67,1111122 
DISL,ioos:station:DISL:DISL:1,2016-07-05T10:30:00Z,30.2513,-88.0778,1.953,5.67,1111122 
DISL,ioos:station:DISL:DISL:1,2016-07-05T11:00:00Z,30.2513,-88.0778,1.994,5.55,1111122 
DISL,ioos:station:DISL:DISL:1,2016-07-05T11:30:00Z,30.2513,-88.0778,2.012,5.48,1111122 
DISL,ioos:station:DISL:DISL:1,2016-07-05T12:00:00Z,30.2513,-88.0778,2.05,5.43,1111122 
DISL,ioos:station:DISL:DISL:1,2016-07-05T12:30:00Z,30.2513,-88.0778,2.102,5.32,1111122 
DISL,ioos:station:DISL:DISL:1,2016-07-05T13:00:00Z,30.2513,-88.0778,2.127,5.34,1111122 
DISL,ioos:station:DISL:DISL:1,2016-07-05T13:30:00Z,30.2513,-88.0778,2.146,5.33,1111122 
DISL,ioos:station:DISL:DISL:1,2016-07-05T14:00:00Z,30.2513,-88.0778,2.165,4.91,1111122 
DISL,ioos:station:DISL:DISL:1,2016-07-05T14:30:00Z,30.2513,-88.0778,2.18,4.97,1111122 
DISL,ioos:station:DISL:DISL:1,2016-07-05T15:00:00Z,30.2513,-88.0778,2.197,5.08,1111122 
DISL,ioos:station:DISL:DISL:1,2016-07-05T15:30:00Z,30.2513,-88.0778,2.217,4.54,1111122 
DISL,ioos:station:DISL:DISL:1,2016-07-05T16:00:00Z,30.2513,-88.0778,2.22,5.27,1111122 
DISL,ioos:station:DISL:DISL:1,2016-07-05T16:30:00Z,30.2513,-88.0778,2.216,5.3,1111122 
DISL,ioos:station:DISL:DISL:1,2016-07-05T17:00:00Z,30.2513,-88.0778,2.209,5.78,1111122 
DISL,ioos:station:DISL:DISL:1,2016-07-05T17:30:00Z,30.2513,-88.0778,2.182,5.82,1111122 
DISL,ioos:station:DISL:DISL:1,2016-07-05T18:00:00Z,30.2513,-88.0778,2.177,6.26,1111122 
DISL,ioos:station:DISL:DISL:1,2016-07-05T18:30:00Z,30.2513,-88.0778,2.156,6.32,1111122 
DISL,ioos:station:DISL:DISL:1,2016-07-05T19:00:00Z,30.2513,-88.0778,2.147,5.66,1111122 
DISL,ioos:station:DISL:DISL:1,2016-07-05T19:30:00Z,30.2513,-88.0778,2.15,6.34,1111122 
DISL,ioos:station:DISL:DISL:1,2016-07-05T20:00:00Z,30.2513,-88.0778,2.087,6.7,1111122 
DISL,ioos:station:DISL:DISL:1,2016-07-05T20:30:00Z,30.2513,-88.0778,2.044,6.9,1111122 
DISL,ioos:station:DISL:DISL:1,2016-07-05T21:00:00Z,30.2513,-88.0778,1.999,7.03,1111122 
DISL,ioos:station:DISL:DISL:1,2016-07-05T21:30:00Z,30.2513,-88.0778,1.965,7.19,1111122 
DISL,ioos:station:DISL:DISL:1,2016-07-05T22:00:00Z,30.2513,-88.0778,1.932,7.96,1111122 
DISL,ioos:station:DISL:DISL:1,2016-07-05T22:30:00Z,30.2513,-88.0778,1.909,8.34,1111122 
DISL,ioos:station:DISL:DISL:1,2016-07-05T23:00:00Z,30.2513,-88.0778,1.892,8.09,1111122 
DISL,ioos:station:DISL:DISL:1,2016-07-05T23:30:00Z,30.2513,-88.0778,1.86,7.54,1111122 
DISL,ioos:station:DISL:DISL:1,2016-07-06T00:00:00Z,30.2513,-88.0778,1.824,7.25,1111122 
DISL,ioos:station:DISL:DISL:1,2016-07-06T00:30:00Z,30.2513,-88.0778,1.798,7.14,1111122 
DISL,ioos:station:DISL:DISL:1,2016-07-06T01:00:00Z,30.2513,-88.0778,1.776,6.88,1111122 
DISL,ioos:station:DISL:DISL:1,2016-07-06T01:30:00Z,30.2513,-88.0778,1.74,6.57,1111122 
DISL,ioos:station:DISL:DISL:1,2016-07-06T02:00:00Z,30.2513,-88.0778,1.722,6.2,1111122 
DISL,ioos:station:DISL:DISL:1,2016-07-06T02:30:00Z,30.2513,-88.0778,1.704,6.13,1111122 
DISL,ioos:station:DISL:DISL:1,2016-07-06T03:00:00Z,30.2513,-88.0778,1.7,6.13,1111122 
DISL,ioos:station:DISL:DISL:1,2016-07-06T03:30:00Z,30.2513,-88.0778,1.708,5.63,1111122 
DISL,ioos:station:DISL:DISL:1,2016-07-06T04:00:00Z,30.2513,-88.0778,1.719,5.9,1111122 
DISL,ioos:station:DISL:DISL:1,2016-07-06T04:30:00Z,30.2513,-88.0778,1.735,5.75,1111122 
DISL,ioos:station:DISL:DISL:1,2016-07-06T05:00:00Z,30.2513,-88.0778,1.723,5.09,1111122 
DISL,ioos:station:DISL:DISL:1,2016-07-06T05:30:00Z,30.2513,-88.0778,1.744,5.38,1111122 
DISL,ioos:station:DISL:DISL:1,2016-07-06T06:00:00Z,30.2513,-88.0778,1.766,5.65,1111122 
DISL,ioos:station:DISL:DISL:1,2016-07-06T06:30:00Z,30.2513,-88.0778,1.777,5.51,1111122 
DISL,ioos:station:DISL:DISL:1,2016-07-06T07:00:00Z,30.2513,-88.0778,1.777,4.7,1111122 
DISL,ioos:station:DISL:DISL:1,2016-07-06T07:30:00Z,30.2513,-88.0778,1.809,5.44,1111122 
DISL,ioos:station:DISL:DISL:1,2016-07-06T08:00:00Z,30.2513,-88.0778,1.834,5.59,1111122 
DISL,ioos:station:DISL:DISL:1,2016-07-06T08:30:00Z,30.2513,-88.0778,1.834,5.21,1111122 
DISL,ioos:station:DISL:DISL:1,2016-07-06T09:00:00Z,30.2513,-88.0778,1.835,5.0,1111122 
DISL,ioos:station:DISL:DISL:1,2016-07-06T09:30:00Z,30.2513,-88.0778,1.86,5.12,1111122 
DISL,ioos:station:DISL:DISL:1,2016-07-06T10:00:00Z,30.2513,-88.0778,1.873,4.96,1111122 
DISL,ioos:station:DISL:DISL:1,2016-07-06T10:30:00Z,30.2513,-88.0778,1.896,5.01,1111122 
DISL,ioos:station:DISL:DISL:1,2016-07-06T11:00:00Z,30.2513,-88.0778,1.94,4.89,1111122 
DISL,ioos:station:DISL:DISL:1,2016-07-06T11:30:00Z,30.2513,-88.0778,1.962,4.8,1111122 
DISL,ioos:station:DISL:DISL:1,2016-07-06T12:00:00Z,30.2513,-88.0778,1.991,5.27,1111122 
DISL,ioos:station:DISL:DISL:1,2016-07-06T12:30:00Z,30.2513,-88.0778,2.023,5.17,1111122 
DISL,ioos:station:DISL:DISL:1,2016-07-06T13:00:00Z,30.2513,-88.0778,2.046,5.31,1111122 
DISL,ioos:station:DISL:DISL:1,2016-07-06T13:30:00Z,30.2513,-88.0778,2.073,5.21,1111122 
DISL,ioos:station:DISL:DISL:1,2016-07-06T14:00:00Z,30.2513,-88.0778,2.095,5.29,1111122 
DISL,ioos:station:DISL:DISL:1,2016-07-06T14:30:00Z,30.2513,-88.0778,2.115,5.3,1111122 
DISL,ioos:station:DISL:DISL:1,2016-07-06T15:00:00Z,30.2513,-88.0778,2.152,4.8,1111122 
DISL,ioos:station:DISL:DISL:1,2016-07-06T15:30:00Z,30.2513,-88.0778,2.226,5.26,1111122 